Location: Piotrkow Trybunalski
(51.4000°N, 19.6830°E)
Time: 17:29:30
(UTC+01:00)

ISS - Pass Details

Date: 26 January 2020
Orbit: 415 x 422 km, 51.6° (Epoch: 26 February)

Event Time Altitude Azimuth Distance (km) Brightness Sun altitude
Rises 16:46:57 0° 219° (SW) 2,371 1.4 -4.7°
Reaches altitude 10° 16:49:14 10° 207° (SSW) 1,508 -0.1 -5.0°
Maximum altitude 16:52:09 27° 148° (SSE) 848 -2.3 -5.4°
Drops below altitude 10° 16:55:05 10° 88° (E) 1,512 -1.5 -5.8°
Enters shadow 16:55:46 - 83° (E) 1,761 -1.2 -5.9°
